Location: Driftpile
(55.3500°N, 115.7667°W)
Time: 09:48:55
(UTC+00:00)

N. Korean satellite - Pass Details

Date: 30 November 2021
Orbit: 447 x 491 km, 97.3° (Epoch: 23 January)

Event Time Altitude Azimuth Distance (km) Brightness Sun altitude
Rises 14:32:29 0° 2° (N) 2,493 9.9 -9.6°
Reaches altitude 10° 14:35:05 10° 341° (NNW) 1,605 8.8 -9.3°
Maximum altitude 14:37:18 16° 301° (WNW) 1,253 8.0 -9.0°
Drops below altitude 10° 14:39:30 10° 261° (W) 1,587 8.7 -8.7°
Sets 14:42:02 0° 239° (WSW) 2,450 9.8 -8.4°
